Location: Cudzynowice
(50.2897°N, 20.4835°E)
Time: 11:02:03
(UTC+00:00)

Daily predictions for brighter satellites

Satellite Brightness Start Highest point End
(mag) Time Altitude Azimuth Time Altitude Azimuth Time Altitude Azimuth
Cosmos 2034 Rocket 4.5 15:06:54 10° NNW 15:13:05 68° W 15:19:10 10° S
Cosmos 1606 Rocket 3.6 15:10:46 10° S 15:15:10 67° E 15:19:35 10° NNE
SMAP 3.5 15:11:39 10° SE 15:15:59 40° ENE 15:20:20 10° N
Cosmos 1726 Rocket 3.8 15:13:02 10° S 15:17:21 54° E 15:21:42 10° NNE
SJ-7 4.5 15:13:49 10° SSE 15:17:41 52° ENE 15:21:37 10° N
USA 306 1.5 15:17:31 10° WNW 15:19:46 46° NNE 15:21:52 10° E
ATLAS 5 CENTAUR R/B 4.4 15:15:36 10° WNW 15:20:12 32° WSW 15:25:40 10° S
Cosmos 1500 3.8 15:20:51 10° N 15:24:02 31° ENE 15:27:12 10° SE
Tsikada Rocket 4.0 15:18:00 10° S 15:24:15 86° E 15:30:28 10° N
Cosmos 1825 Rocket 3.8 15:20:28 10° NNW 15:24:47 76° W 15:29:05 10° S
Cosmos 2263 Rocket 3.1 15:20:46 10° SSE 15:25:24 28° ESE 15:30:03 10° NE
Cosmos 1437 Rocket 2.7 15:23:43 10° N 15:27:21 53° ENE 15:31:01 10° SSE
Cosmos 2227 Rocket 2.2 15:21:56 10° SSW 15:27:35 76° ESE 15:33:15 10° NNE
CZ-2D R/B 3.1 15:24:09 10° SSE 15:27:49 79° ENE 15:31:31 10° N
Cosmos 1869 4.0 15:24:14 10° SSW 15:27:56 51° WNW 15:31:38 10° N
SL-8 R/B 3.9 15:23:41 10° W 15:28:26 72° S 15:33:13 10° E
SJ-11-01 4.3 15:24:19 10° SSE 15:28:58 86° ENE 15:33:39 10° NNW
Cosmos 2298 Rocket 4.2 15:24:29 10° SSW 15:29:48 82° WNW 15:35:11 10° NNE
H-2A R/B 4.3 15:29:02 10° SSW 15:33:20 27° W 15:37:35 10° NW
Cosmos 2151 3.0 15:29:23 10° N 15:33:36 58° ENE 15:37:48 10° SSE
Cosmos 2228 4.5 15:30:17 10° SW 15:34:20 38° WNW 15:38:24 10° N
CORIOLIS 4.2 15:31:02 10° SSE 15:36:18 62° ENE 15:41:36 10° N
ATLAS 2AS CENTAUR R/B 3.5 15:30:59 10° NW 15:37:16 32° NNE 15:42:50 12° ENE
Cosmos 1238 Rocket 2.8 15:33:28 10° SSW 15:37:16 70° W 15:40:33 10° N
CZ-2C R/B 2.5 15:34:58 10° SSE 15:38:30 82° ENE 15:42:07 10° NNW
SL-16 R/B 4.0 15:34:03 10° N 15:39:37 34° WNW 15:45:09 10° WSW
Cosmos 2251 Rocket 4.4 15:35:05 10° N 15:39:41 28° NE 15:44:17 10° ESE
Helios 1B rocket 2.8 15:38:30 10° S 15:42:24 64° WSW 15:46:21 10° NNW
YAOGAN 1 4.2 15:42:20 13° ENE 15:42:43 13° NE 15:44:47 10° NNE
CZ-4B R/B 3.9 15:39:19 10° SE 15:44:01 39° ENE 15:48:37 10° N
Cosmos 407 Rocket 4.3 15:40:14 10° N 15:44:41 28° NE 15:49:04 10° ESE
CZ-4B R/B 3.6 15:41:27 10° SSE 15:44:58 56° ENE 15:48:32 10° N
Cosmos 1812 4.1 15:44:16 10° SE 15:46:47 18° E 15:47:51 16° ENE
SL-16 R/B 2.5 15:44:20 10° NNW 15:50:02 73° WSW 15:55:40 10° SSE
Lacrosse 4 Rocket 2.1 15:50:21 10° NNW 15:54:25 36° NE 15:58:23 10° ESE
USA 305 2.7 15:50:38 10° WNW 15:54:25 61° NNE 15:57:19 16° E
Meteor 1-31 Rocket 2.5 15:51:17 10° SSE 15:54:58 73° ENE 15:58:41 10° N
Cosmos 2344 4.3 15:55:36 10° S 16:01:56 29° ESE 16:06:06 17° ENE
Cosmos 1943 3.3 15:58:33 10° NNW 16:04:06 54° NE 16:09:37 10° SE
Cosmos 1544 3.5 16:01:10 10° NNW 16:04:24 56° W 16:07:34 10° S
Radarsat Rocket 4.1 15:58:52 10° SE 16:04:27 50° ENE 16:10:17 10° N
Cosmos 1607 4.0 15:58:21 10° SSW 16:04:40 77° SE 16:10:12 15° NE
Cosmos 1269 Rocket 4.4 16:00:37 10° NNW 16:05:53 68° WSW 16:11:08 10° SSE
Cosmos 1076 Rocket 3.7 16:04:55 10° NNW 16:09:17 76° W 16:13:37 10° S
BREEZE-M DEB (TANK) 3.6 16:06:27 10° WSW 16:10:06 87° SSE 16:19:21 18° ENE
Cosmos 1812 Rocket 4.2 16:09:20 10° SSE 16:13:10 32° E 16:15:10 21° NE
SL-08 R/B 4.2 16:15:08 24° ENE 16:15:58 25° E 16:19:47 10° SSE
Cosmos 2297 Rocket 3.5 16:11:01 10° WSW 16:16:09 35° NW 16:21:21 10° NNE
Cosmos 2219 3.3 16:12:10 10° SW 16:17:47 75° WNW 16:23:08 12° NNE
ADEOS 3.9 16:12:55 10° SE 16:17:48 42° ENE 16:22:42 10° N
Cosmos 44 4.0 16:14:17 10° NW 16:19:37 62° SW 16:24:43 10° SSE
USA 234 3.4 16:16:20 20° ENE 16:20:56 62° SE 16:27:24 10° SW
DMSP B5D2-2 4.4 16:16:18 10° N 16:21:29 69° WNW 16:26:39 10° SSW
Cosmos 1602 3.5 16:19:31 10° N 16:23:15 89° S 16:26:58 10° S
Meteor 1-25 Rocket 4.2 16:17:56 10° N 16:23:34 56° ENE 16:29:04 10° SSE
Cosmos 1023 Rocket 4.4 16:18:49 10° NNW 16:23:59 68° ENE 16:29:05 10° SSE
Cosmos 1666 2.9 16:24:32 10° NNW 16:28:02 62° W 16:31:31 10° S
USA 307 2.6 16:25:39 10° WNW 16:29:31 79° SSW 16:31:19 30° SE
ISS -2.6 16:30:29 10° W 16:33:40 40° SSW 16:35:28 21° SSE
Cosmos 2082 3.7 16:29:29 10° SSW 16:35:06 85° WNW 16:39:27 18° NNE
COSMO-SKYMED 1 2.7 16:34:41 29° NE 16:36:37 51° E 16:40:52 10° S
Cosmos 2026 Rocket 4.2 16:32:22 10° SSE 16:38:13 44° E 16:44:11 10° NNE
Cosmos 2058 Rocket 4.2 16:35:40 10° SSW 16:39:54 43° WNW 16:44:09 10° N
ATLAS CENTAUR R/B 2.9 16:35:47 10° WNW 16:40:01 75° SW 16:48:19 10° SE
Cosmos 1833 Rocket 4.3 16:37:44 10° N 16:40:51 17° NNE 16:40:51 17° NNE
Lacrosse 5 3.5 16:43:11 10° SSE 16:45:42 18° SE 16:45:42 18° SE
Helios 1A 2.9 16:44:13 19° NNE 16:47:11 83° WNW 16:51:20 10° SSW
CBERS 1 LM4 rocket 4.4 16:44:23 10° SSE 16:49:13 77° WSW 16:53:58 10° NNW
Cosmos 1140 Rocket 3.5 16:45:04 10° NNW 16:50:17 80° WSW 16:55:25 10° SSE
Cosmos 1092 Rocket 4.0 16:45:24 10° SSE 16:51:21 56° E 16:57:20 10° NNE
Nadezhda 4 Rocket 4.0 16:48:43 10° SSW 16:54:52 81° W 17:01:02 10° N
USA 306 4.3 16:53:05 10° W 16:54:02 18° WSW 16:54:02 18° WSW
CZ-4B R/B 3.1 16:58:57 57° NE 16:58:57 57° NE 17:02:40 10° N
CZ-4B R/B 4.2 17:00:48 29° NNE 17:00:48 29° NNE 17:04:15 10° N
Meteor 1-20 Rocket 4.5 16:53:53 10° NNW 16:59:24 70° W 17:04:59 10° S
Cosmos-2242 3.3 16:57:53 10° SSW 17:02:12 68° WNW 17:05:03 21° N
Meteor 1-5 Rocket 4.2 16:59:47 10° N 17:05:22 61° ENE 17:11:07 10° SSE
Cosmos 2227 4.1 17:00:52 10° SSW 17:06:35 69° ESE 17:08:10 47° NE
Cosmos 2263 Rocket 2.7 17:03:30 10° SW 17:08:58 57° NW 17:12:14 24° NNE
Cosmos 1844 Rocket 3.5 17:05:17 10° S 17:08:55 33° SE 17:08:55 33° SE
Cosmos 2082 Rocket 4.3 17:09:08 10° N 17:10:23 12° N 17:10:23 12° N
RESURS DK-1 4.3 17:07:55 10° NNW 17:09:16 19° N 17:09:16 19° N
Cosmos 2227 Rocket 4.0 17:07:32 10° W 17:12:14 26° NW 17:16:16 13° N
EO 1 Delta rocket 4.4 17:05:58 10° SSE 17:12:57 78° ENE 17:18:26 10° N
Cosmos 1428 Rocket 4.5 17:11:30 10° S 17:17:49 83° W 17:24:10 10° N
YAOGAN 1 3.2 17:19:24 45° NNW 17:19:24 45° NNW 17:22:25 10° NNW
Cosmos 1603 4.0 17:15:15 10° NNW 17:20:55 66° WSW 17:26:12 11° SSE
Cosmos 1812 3.9 17:18:10 10° SW 17:21:38 39° WNW 17:22:20 35° NW
Cosmos 2251 Rocket 4.1 17:17:04 10° NNW 17:22:18 57° WSW 17:27:32 10° S
SKYMED 2 4.2 17:23:18 37° NNW 17:24:43 55° WNW 17:28:57 10° SSW
Cosmos 1627 Rocket 4.4 17:19:44 10° S 17:26:01 89° WNW 17:32:26 10° N
Cosmos 407 Rocket 4.1 17:21:55 10° NNW 17:26:58 55° WSW 17:31:57 10° S
USA 305 3.9 17:25:37 10° WNW 17:28:38 38° WSW 17:28:38 38° WSW
ATLAS 2AS CENTAUR R/B 2.5 17:22:20 10° NW 17:29:19 72° NE 17:30:17 63° E
Lacrosse 4 Rocket 2.9 17:28:51 10° NW 17:32:50 35° WSW 17:34:32 25° SSW
Cosmos 1954 Rocket 4.4 17:34:48 10° NNW 17:38:57 56° NNW 17:38:57 56° NNW
Cosmos 1818 3.8 17:35:55 10° SSW 17:40:25 61° SSW 17:40:25 61° SSW
Timation 2 Rocket 4.5 17:41:08 10° SSW 17:45:09 43° S 17:45:09 43° S
SL-08 R/B 4.2 17:54:03 44° WNW 17:54:03 44° WNW 17:58:16 10° SW
ADEOS Rocket 4.5 18:05:29 23° N 18:05:29 23° N 18:07:32 10° NNW
USA 234 3.4 18:03:40 64° N 18:04:00 65° NNW 18:10:28 10° W
Cosmos 1553 Rocket 4.3 18:03:01 10° NNW 18:09:17 64° W 18:10:27 54° SW
Cosmos 2344 3.5 18:08:10 10° SW 18:15:33 71° NW 18:16:07 68° N
Lacrosse 5 4.2 18:23:52 10° SW 18:24:56 16° SW 18:24:56 16° SW
ATLAS 2AS CENTAUR R/B 4.3 19:13:50 10° NW 19:17:44 27° W 19:17:44 27° W
